Вернуться в каталог

FENGYUN 1C DEB

АктивенSSO
NORAD 30196·DEBRIS·🇨🇳 China

Запущен May 10, 1999 с Taiyuan Satellite Launch Center

Loading…

Ближайшие Пролёты (ближайшие 24 часа)

TLE

СвежийSource: Space-Track

Эпоха: Sep 14, 2026, 05:51 UTC

1 30196U 99025VD  26257.24419461  .00000043  00000-0  35211-4 0  9990
2 30196  98.6357 350.7078 0085456 340.3588  45.3359 14.25924262 22884

Отслеживайте FENGYUN 1C DEB в реальном времени с AllMySat

Download on the App Store